EUTELSAT 16A

Last updated on Thu Oct 30 2025 00:02:48 GMT+0000 (Coordinated Universal Time)

1 37836U 11057A 25302.33154365 .00000114 00000+0 00000+0 0 9997 2 37836 0.0664 12.4733 0005618 210.0178 310.7887 1.00271485 5012
UTC large
Height (km)
Speed (km/s)
/
Latitude / Longitude
Inclination (degrees)
Orbital Period (minutes)
Azimuth
Elevation
Range (km)
Doppler Factor

Next 0 passes for location: London (51.5072 / 0.1276)

Sorry there are no passes over London.